Content
SEND FEEDBACK

Daily
Averages
Monthly
Summary
United States of America

UKIAH, CALIFORNIA


Home > North America > United States > California
Elevation: 615 feet     Latitude: 39 08N     Longitude: 123 12W

WEATHER
 
SELECT A DAY
Number of Records: 216,847;   Date Range: 1/1/95 - 7/7/14
 
SHARE

PRINT THIS DATA

[ ← Previous Day ]
WEATHER ALMANAC - NOVEMBER 12, 2013
[ Next Day → ]
[ °C ]   °F
Weather ElementAverageHighLow
Temperature60.3 °F75 °F (2:56 pm)48 °F (10:56 pm)
Dewpoint42.3 °F46.9 °F (9:56 am)37.9 °F (1:56 pm)
Humidity54.2 %83 % (10:56 pm)26 % (2:56 pm)
Barometer30.23 in30.28 in (10:56 pm)30.18 in (1:56 am)
Wind Speed1.9 mph5.8 mph (6:56 am)
Weather ElementAverage
Visibility9.7 mi
Wind DirectionENE (84.3 °)

Weather ElementTotal
Precipitation0.02 in
Heating Degree Days3.5 (Base 65)
Growing Degree Days11.5 (Base 50)
Averaged from 23 records on November 12, 2013
WEATHER CONDITIONS BREAKOUT
WIND DIRECTION BREAKOUT
WEATHER BY HOUR - NOVEMBER 12, 2013
[ °C ]   °F
Local TimeTemperatureDewpointHumidityBarometerVisibilityWind DirectionWind SpeedGust SpeedPrecipitationEventsConditions
1:56 AM57.0 °F42.1 °F57 %30.18 in10.0 miNW (310°)3.5 mphClear
2:56 AM55.0 °F43.0 °F64 %30.21 in10.0 miCalmClear
3:56 AM59.0 °F41.0 °F51 %30.20 in10.0 miSouth (170°)3.5 mphClear
4:56 AM55.9 °F42.1 °F60 %30.20 in10.0 miSSE (150°)3.5 mphPartly Cloudy
5:56 AM55.9 °F43.0 °F62 %30.21 in10.0 miCalmClear
6:56 AM55.9 °F42.1 °F60 %30.22 in10.0 miNW (310°)5.8 mphMostly Cloudy
7:56 AM54.0 °F45.0 °F72 %30.25 in4.0 miCalm0.02 inRainLight Rain
8:56 AM57.9 °F46.0 °F65 %30.26 in10.0 miWest (270°)4.6 mph0.00 inScattered Clouds
9:56 AM62.1 °F46.9 °F58 %30.25 in10.0 miNorth (10°)5.8 mphMostly Cloudy
10:56 AM64.0 °F43.0 °F46 %30.26 in10.0 miCalmMostly Cloudy
11:56 AM69.1 °F41.0 °F36 %30.24 in10.0 miCalmOvercast
12:56 PM71.1 °F41.0 °F34 %30.22 in10.0 miEast (90°)3.5 mphOvercast
1:56 PM73.9 °F37.9 °F27 %30.21 in10.0 miCalmOvercast
2:56 PM75.0 °F37.9 °F26 %30.21 in10.0 miNorth (10°)4.6 mphClear
3:56 PM73.0 °F39.9 °F30 %30.20 in9.0 miWest (280°)3.5 mphMostly Cloudy
4:56 PM66.9 °F43.0 °F42 %30.21 in10.0 miNNW (340°)4.6 mphPartly Cloudy
5:56 PM61.0 °F44.1 °F54 %30.23 in10.0 miCalmScattered Clouds
6:56 PM59.0 °F41.0 °F51 %30.24 in10.0 miCalmClear
7:56 PM57.0 °F42.1 °F57 %30.25 in10.0 miCalmClear
8:56 PM55.0 °F43.0 °F64 %30.27 in10.0 miCalmClear
9:56 PM52.0 °F43.0 °F71 %30.27 in10.0 miCalmClear
10:56 PM48.0 °F43.0 °F83 %30.28 in10.0 miCalmClear
11:56 PM48.9 °F42.1 °F77 %30.28 in10.0 miCalmClear
Hourly data recorded from KUKI, located miles away from Ukiah, California







STORIES FROM OUR PARTNERS